GW7874 Weather Reports


time (UTC)temp
F
wind
direction
speed
knots
gust
knots
rain 1hr
in
rain 24hr
in
rain mn
in
humidity
%
barometer
mb
20260906200018 103 208 1.7 3.5 0.00 0.00 0.00 30 981.7
20260906195518 100 60 0.9 1.7 0.00 0.00 0.00 33 981.7
20260906195018 100 28 1.7 4.3 0.00 0.00 0.00 32 982.1
20260906194518 100 115 2.6 3.5 0.00 0.00 0.00 32 982.1
20260906194018 101 78 1.7 2.6 0.00 0.00 0.00 31 982.1
20260906193518 103 81 4.3 5.2 0.00 0.00 0.00 29 982.1
20260906193018 105 343 5.2 5.2 0.00 0.00 0.00 28 982.1
20260906192519 105 150 2.6 3.5 0.00 0.00 0.00 29 982.4
20260906192018 104 194 2.6 5.2 0.00 0.00 0.00 28 982.4
20260906191519 103 13 1.7 3.5 0.00 0.00 0.00 30 982.4
20260906191019 105 121 4.3 7.0 0.00 0.00 0.00 28 982.4
20260906190519 103 151 7.0 7.0 0.00 0.00 0.00 30 982.4
20260906190018 103 217 2.6 7.8 0.00 0.00 0.00 29 982.4
20260906185519 104 161 4.3 7.0 0.00 0.00 0.00 29 982.7
20260906185020 104 48 4.3 4.3 0.00 0.00 0.00 29 982.7
20260906184523 103 253 3.5 4.3 0.00 0.00 0.00 32 982.7
20260906184019 102 59 3.5 5.2 0.00 0.00 0.00 32 982.7
20260906183518 102 350 5.2 7.8 0.00 0.00 0.00 34 982.7
20260906183020 99 7 3.5 4.3 0.00 0.00 0.00 36 982.7
20260906182518 100 7 2.6 3.5 0.00 0.00 0.00 35 983.1
20260906182019 101 324 2.6 6.1 0.00 0.00 0.00 33 983.1
20260906181519 100 191 3.5 6.1 0.00 0.00 0.00 34 983.1
20260906181018 102 20 1.7 3.5 0.00 0.00 0.00 33 983.1
20260906180518 103 70 0.9 2.6 0.00 0.00 0.00 33 983.4
20260906180019 102 46 1.7 1.7 0.00 0.00 0.00 33 983.4
20260906175518 103 78 2.6 6.1 0.00 0.00 0.00 32 983.4
20260906175018 101 179 2.6 3.5 0.00 0.00 0.00 35 983.7
20260906174518 100 133 1.7 1.7 0.00 0.00 0.00 34 983.7
20260906174018 101 59 1.7 5.2 0.00 0.00 0.00 34 983.7
20260906173518 101 334 0.9 3.5 0.00 0.00 0.00 35 983.7
20260906173018 100 352 1.7 3.5 0.00 0.00 0.00 34 984.1
20260906172518 99 344 3.5 4.3 0.00 0.00 0.00 35 984.1
20260906172018 100 49 3.5 3.5 0.00 0.00 0.00 35 984.1
20260906171518 101 200 2.6 6.1 0.00 0.00 0.00 34 984.4
20260906171018 102 40 4.3 4.3 0.00 0.00 0.00 35 984.4
20260906170518 101 16 2.6 5.2 0.00 0.00 0.00 35 984.4
20260906170019 101 27 2.6 2.6 0.00 0.00 0.00 34 984.4
20260906165518 101 238 2.6 3.5 0.00 0.00 0.00 33 984.4
20260906165018 99 287 0.9 0.9 0.00 0.00 0.00 35 984.4
20260906164518 99 188 5.2 5.2 0.00 0.00 0.00 35 984.8
20260906164018 100 47 4.3 5.2 0.00 0.00 0.00 36 984.8
20260906163519 99 216 2.6 5.2 0.00 0.00 0.00 36 984.8
20260906163019 99 308 0.0 2.6 0.00 0.00 0.00 36 984.8
20260906162519 99 95 1.7 4.3 0.00 0.00 0.00 37 984.8
20260906162018 99 177 2.6 4.3 0.00 0.00 0.00 36 984.8
20260906161519 98 161 1.7 4.3 0.00 0.00 0.00 37 984.8
20260906161018 98 230 1.7 2.6 0.00 0.00 0.00 37 984.8
20260906160519 98 266 2.6 2.6 0.00 0.00 0.00 37 984.8
20260906160018 98 234 0.9 2.6 0.00 0.00 0.00 38 984.8
20260906155518 97 213 1.7 1.7 0.00 0.00 0.00 39 984.8
20260906155018 97 245 2.6 5.2 0.00 0.00 0.00 39 984.8
20260906154518 97 216 2.6 2.6 0.00 0.00 0.00 39 984.8
20260906154019 96 275 0.0 3.5 0.00 0.00 0.00 40 984.8
20260906153518 96 322 1.7 2.6 0.00 0.00 0.00 41 984.8
20260906153018 95 222 2.6 2.6 0.00 0.00 0.00 42 984.8
20260906152519 95 238 1.7 2.6 0.00 0.00 0.00 41 984.8
20260906152019 94 350 1.7 5.2 0.00 0.00 0.00 44 984.4
20260906151519 94 249 3.5 5.2 0.00 0.00 0.00 42 984.4
20260906151018 93 279 4.3 5.2 0.00 0.00 0.00 43 984.4
20260906150519 93 4 1.7 5.2 0.00 0.00 0.00 43 984.4
20260906150019 93 269 5.2 5.2 0.00 0.00 0.00 43 984.4
20260906145518 93 322 0.9 0.9 0.00 0.00 0.00 44 984.8
20260906145019 93 312 3.5 5.2 0.00 0.00 0.00 46 984.8
20260906144520 92 48 0.0 0.0 0.00 0.00 0.00 46 984.8
20260906144018 90 21 0.0 0.0 0.00 0.00 0.00 50 984.8
20260906143519 90 319 0.9 2.6 0.00 0.00 0.00 50 984.8
20260906143019 89 324 0.0 1.7 0.00 0.00 0.00 51 984.4
20260906142521 88 330 0.0 0.9 0.00 0.00 0.00 52 984.4
20260906142018 88 179 0.0 2.6 0.00 0.00 0.00 53 984.4
20260906141519 87 117 0.0 1.7 0.00 0.00 0.00 55 984.4
20260906141018 86 193 2.6 2.6 0.00 0.00 0.00 56 984.4
20260906140518 85 233 1.7 2.6 0.00 0.00 0.00 57 984.4
20260906140019 85 264 0.9 1.7 0.00 0.00 0.00 57 984.4
20260906135518 84 252 1.7 1.7 0.00 0.00 0.00 59 984.1
20260906135018 84 284 0.9 0.9 0.00 0.00 0.00 59 984.1
20260906134519 83 305 0.9 1.7 0.00 0.00 0.00 60 984.1
20260906134019 83 206 1.7 2.6 0.00 0.00 0.00 60 984.1
20260906133522 83 210 2.6 2.6 0.00 0.00 0.00 60 984.1
20260906133018 82 195 1.7 2.6 0.00 0.00 0.00 61 984.1
20260906132518 82 221 0.9 2.6 0.00 0.00 0.00 62 984.1
20260906132020 81 137 0.0 0.0 0.00 0.00 0.00 65 984.1
20260906131518 80 33 0.0 0.0 0.00 0.00 0.00 69 984.1
20260906131018 79 33 0.0 0.0 0.00 0.00 0.00 71 984.1
20260906130520 78 34 0.0 0.0 0.00 0.00 0.00 75 984.1
20260906130018 77 34 0.0 0.0 0.00 0.00 0.00 74 983.7
20260906125518 77 34 0.0 0.0 0.00 0.00 0.00 76 983.7
20260906125020 75 34 0.0 0.0 0.00 0.00 0.00 80 983.7
20260906124518 75 44 0.0 0.0 0.00 0.00 0.00 81 983.7
20260906124019 75 46 0.0 0.0 0.00 0.00 0.00 83 983.7
20260906123518 74 57 0.0 0.0 0.00 0.00 0.00 83 983.7
20260906123018 74 69 0.0 0.0 0.00 0.00 0.00 83 983.7
20260906122519 74 50 0.0 0.0 0.00 0.00 0.00 83 983.7
20260906122020 74 21 0.0 0.0 0.00 0.00 0.00 82 983.7
20260906121518 74 17 0.0 0.0 0.00 0.00 0.00 81 983.4
20260906121018 74 17 0.0 0.0 0.00 0.00 0.00 81 983.4
20260906120518 74 17 0.0 0.0 0.00 0.00 0.00 80 983.4
20260906120018 74 33 0.0 0.0 0.00 0.00 0.00 80 983.4
20260906115518 74 34 0.0 0.0 0.00 0.00 0.00 79 983.4
20260906115018 74 35 0.0 0.0 0.00 0.00 0.00 80 983.1
20260906114518 74 35 0.0 0.0 0.00 0.00 0.00 80 983.4
20260906114018 74 3 0.0 0.0 0.00 0.00 0.00 79 983.1
20260906113519 74 3 0.0 0.0 0.00 0.00 0.00 79 983.1
20260906113018 74 3 0.0 0.0 0.00 0.00 0.00 79 983.1
20260906112519 74 3 0.0 0.0 0.00 0.00 0.00 79 983.1
20260906112018 74 3 0.0 0.0 0.00 0.00 0.00 79 983.1
20260906111519 74 3 0.0 0.0 0.00 0.00 0.00 78 982.7
20260906111019 74 2 0.0 0.0 0.00 0.00 0.00 78 982.7
20260906110518 75 2 0.0 0.0 0.00 0.00 0.00 78 982.7
20260906110018 75 55 0.0 0.0 0.00 0.00 0.00 78 982.7
20260906105518 75 56 0.0 0.0 0.00 0.00 0.00 78 982.7
20260906105018 75 7 0.0 0.0 0.00 0.00 0.00 78 982.7
20260906104521 75 6 0.0 0.0 0.00 0.00 0.00 78 982.7
20260906104019 75 6 0.0 0.0 0.00 0.00 0.00 77 982.7
20260906103521 75 5 0.0 0.0 0.00 0.00 0.00 77 982.7
20260906103019 75 48 0.0 0.0 0.00 0.00 0.00 77 982.7
20260906102523 75 47 0.0 0.0 0.00 0.00 0.00 77 982.7
20260906102018 75 6 0.0 0.0 0.00 0.00 0.00 77 982.7
20260906101519 75 4 0.0 0.0 0.00 0.00 0.00 77 982.7
20260906101018 76 39 0.0 0.0 0.00 0.00 0.00 76 982.7
20260906100522 76 33 0.0 0.0 0.00 0.00 0.00 76 982.7
20260906100018 76 25 0.0 0.0 0.00 0.00 0.00 76 982.7
20260906095518 76 32 0.0 0.0 0.00 0.00 0.00 79 982.7
20260906095019 76 32 0.0 0.0 0.00 0.00 0.00 77 982.7
20260906094518 75 16 0.0 0.0 0.00 0.00 0.00 77 982.7
20260906094018 75 15 0.0 0.0 0.00 0.00 0.00 77 982.7
20260906093518 75 15 0.0 0.0 0.00 0.00 0.00 77 982.7
20260906093018 76 15 0.0 0.0 0.00 0.00 0.00 76 982.7
20260906092519 76 27 0.0 0.0 0.00 0.00 0.00 76 982.7
20260906092018 76 27 0.0 0.0 0.00 0.00 0.00 77 982.7
20260906091518 76 18 0.0 0.0 0.00 0.00 0.00 76 982.7
20260906091018 76 16 0.0 0.0 0.00 0.00 0.00 75 982.7
20260906090518 76 17 0.0 0.0 0.00 0.00 0.00 75 982.7
20260906090018 76 16 0.0 0.0 0.00 0.00 0.00 74 982.7
20260906085520 77 16 0.0 0.0 0.00 0.00 0.00 74 982.4
20260906085018 77 16 0.0 0.0 0.00 0.00 0.00 73 982.7
20260906084518 77 16 0.0 0.0 0.00 0.00 0.00 73 982.4
20260906084018 77 16 0.0 0.0 0.00 0.00 0.00 74 982.4
20260906083518 77 15 0.0 0.0 0.00 0.00 0.00 76 982.4
20260906083019 77 88 0.0 0.0 0.00 0.00 0.00 75 982.4
20260906082518 77 40 0.0 0.0 0.00 0.00 0.00 74 982.4
20260906082018 77 37 0.0 0.0 0.00 0.00 0.00 75 982.4
20260906081519 77 72 0.0 1.7 0.00 0.00 0.00 73 982.1
20260906081021 77 32 0.0 0.0 0.00 0.00 0.00 71 982.1
20260906080518 77 33 0.0 0.0 0.00 0.00 0.00 70 982.1
20260906080018 77 33 0.0 0.0 0.00 0.00 0.00 70 982.1
20260906075518 77 33 0.0 0.0 0.00 0.00 0.00 70 982.1
20260906075021 78 33 0.0 0.0 0.00 0.00 0.00 71 982.1
20260906074518 78 33 0.0 0.0 0.00 0.00 0.00 70 982.4
20260906074018 78 33 0.0 0.0 0.00 0.00 0.00 70 982.1
20260906073518 78 26 0.0 0.9 0.00 0.00 0.00 70 982.4
20260906073018 78 75 0.0 0.0 0.00 0.00 0.00 70 982.4
20260906072519 78 359 0.0 0.0 0.00 0.00 0.00 70 982.4
20260906072018 78 359 0.0 0.0 0.00 0.00 0.00 68 982.4
20260906071519 78 359 0.0 0.0 0.00 0.00 0.00 68 982.4
20260906071018 79 358 0.0 0.0 0.00 0.00 0.00 69 982.4
20260906070519 79 360 0.0 0.0 0.00 0.00 0.00 69 982.4
20260906070018 79 32 0.0 0.0 0.00 0.00 0.00 68 982.4
20260906065519 79 4 0.0 0.0 0.00 0.00 0.00 67 982.4
20260906065018 79 4 0.0 0.0 0.00 0.00 0.00 67 982.4
20260906064518 79 4 0.0 0.0 0.00 0.00 0.00 66 982.1
20260906064018 79 4 0.0 0.0 0.00 0.00 0.00 66 982.1
20260906063519 79 3 0.0 0.0 0.00 0.00 0.00 66 982.1
20260906063018 79 2 0.0 0.0 0.00 0.00 0.00 65 982.4
20260906062519 79 2 0.0 0.0 0.00 0.00 0.00 65 982.4
20260906062018 79 346 0.0 0.0 0.00 0.00 0.00 65 982.4
20260906061524 79 29 0.0 0.0 0.00 0.00 0.00 65 982.4
20260906061018 79 345 0.0 0.0 0.00 0.00 0.00 64 982.4
20260906060518 79 345 0.0 0.0 0.00 0.00 0.00 64 982.4
20260906060019 80 345 0.0 0.0 0.00 0.00 0.00 64 982.4
20260906055518 80 24 0.0 0.0 0.00 0.00 0.00 65 982.4
20260906055018 80 24 0.0 0.0 0.00 0.00 0.00 64 982.7
20260906054519 80 24 0.0 0.0 0.00 0.00 0.00 64 982.4
20260906054018 81 23 0.0 0.0 0.00 0.00 0.00 64 982.4
20260906053519 81 24 0.0 0.0 0.00 0.00 0.00 63 982.4
20260906053018 81 22 0.0 0.9 0.00 0.00 0.00 62 982.4
20260906052518 82 26 0.0 0.0 0.00 0.00 0.00 60 982.4
20260906052018 82 33 0.0 0.0 0.00 0.00 0.00 60 982.1
20260906051519 81 64 0.0 0.0 0.00 0.00 0.00 60 982.1
20260906051018 81 36 0.0 0.0 0.00 0.00 0.00 61 982.1
20260906050518 81 30 0.0 0.0 0.00 0.00 0.00 61 982.4
20260906050018 81 28 0.0 0.0 0.00 0.00 0.00 61 982.1
20260906045518 81 351 0.0 0.0 0.00 0.00 0.00 61 982.1
20260906045018 81 21 0.0 0.0 0.00 0.00 0.00 61 982.1
20260906044518 81 20 0.0 0.0 0.00 0.00 0.00 61 982.1
20260906044018 82 21 0.0 0.0 0.00 0.00 0.00 60 982.1
20260906043518 82 21 0.0 0.0 0.00 0.00 0.00 60 982.1
20260906043018 82 21 0.0 0.0 0.00 0.00 0.00 60 982.1
20260906042518 82 21 0.0 0.0 0.00 0.00 0.00 59 982.1
20260906042018 83 21 0.0 0.0 0.00 0.00 0.00 58 982.1
20260906041518 83 21 0.0 0.0 0.00 0.00 0.00 57 982.1
20260906041018 83 10 0.0 0.0 0.00 0.00 0.00 57 982.1
20260906040518 83 344 0.0 0.0 0.00 0.00 0.00 56 982.1
20260906040018 84 347 0.0 0.0 0.00 0.00 0.00 56 982.1
20260906035518 84 15 0.0 0.0 0.00 0.00 0.00 56 982.1
20260906035020 84 21 0.0 0.0 0.00 0.00 0.00 55 982.1
20260906034518 85 21 0.0 0.0 0.00 0.00 0.00 54 982.1
20260906034018 85 22 0.0 0.0 0.00 0.00 0.00 53 982.1
20260906033518 86 24 0.0 0.0 0.00 0.00 0.00 52 982.4
20260906033019 86 35 0.0 1.7 0.00 0.00 0.00 52 982.1
20260906032520 86 72 0.9 2.6 0.00 0.00 0.00 51 982.1
20260906032019 87 33 0.0 0.9 0.00 0.00 0.00 51 982.1
20260906031518 87 71 0.9 0.9 0.00 0.00 0.00 49 982.1
20260906031018 88 30 0.0 0.0 0.00 0.00 0.00 49 982.1
20260906030519 88 56 0.0 0.9 0.00 0.00 0.00 48 982.1
20260906030018 88 39 0.0 2.6 0.00 0.00 0.00 48 982.1
20260906025518 89 96 0.9 2.6 0.00 0.00 0.00 48 982.1
20260906025020 89 104 3.5 3.5 0.00 0.00 0.00 47 982.1
20260906024518 89 92 2.6 2.6 0.00 0.00 0.00 47 982.1
20260906024018 89 52 0.9 1.7 0.00 0.00 0.00 47 981.7
20260906023521 89 38 0.0 1.7 0.00 0.00 0.00 47 981.7
20260906023018 89 53 0.0 0.0 0.00 0.00 0.00 47 981.7
20260906022518 89 42 0.0 0.9 0.00 0.00 0.00 48 981.7
20260906022019 88 98 2.6 2.6 0.00 0.00 0.00 48 981.7
20260906021519 88 42 0.0 0.0 0.00 0.00 0.00 49 981.4
20260906021018 88 52 0.0 0.0 0.00 0.00 0.00 48 981.4
20260906020521 89 67 0.0 0.9 0.00 0.00 0.00 48 981.4
20260906020018 89 36 0.0 0.0 0.00 0.00 0.00 48 981.4
20260906015518 89 65 0.0 1.7 0.00 0.00 0.00 47 981.4
20260906015018 89 26 0.0 1.7 0.00 0.00 0.00 48 981.0
20260906014518 90 39 0.0 0.9 0.00 0.00 0.00 46 981.0
20260906014018 90 65 0.0 0.0 0.00 0.00 0.00 46 981.0
20260906013519 90 52 0.0 0.0 0.00 0.00 0.00 45 981.0
20260906013018 91 42 0.0 0.0 0.00 0.00 0.00 45 981.0
20260906012518 91 29 0.0 0.0 0.00 0.00 0.00 44 981.0
20260906012018 92 29 0.0 0.0 0.00 0.00 0.00 43 981.0
20260906011519 92 17 0.0 0.0 0.00 0.00 0.00 43 981.0
20260906011018 93 41 0.0 1.7 0.00 0.00 0.00 42 981.0
20260906010518 94 22 0.0 0.9 0.00 0.00 0.00 40 980.7
20260906010018 94 63 0.0 1.7 0.00 0.00 0.00 40 980.7
20260906005518 94 67 1.7 1.7 0.00 0.00 0.00 40 980.7
20260906005019 95 87 1.7 1.7 0.00 0.00 0.00 39 980.7
20260906004519 95 69 1.7 1.7 0.00 0.00 0.00 38 980.7
20260906004018 96 86 0.9 2.6 0.00 0.00 0.00 38 980.7
20260906003521 97 123 1.7 2.6 0.00 0.00 0.00 37 980.7
20260906003018 97 62 0.9 1.7 0.00 0.00 0.00 36 980.7
20260906002518 97 54 1.7 1.7 0.00 0.00 0.00 36 980.7
20260906002019 97 106 1.7 1.7 0.00 0.00 0.00 36 980.7
20260906001519 98 125 0.9 2.6 0.00 0.00 0.00 35 980.7
20260906001018 98 116 2.6 4.3 0.00 0.00 0.00 35 980.7
20260906000518 99 6 1.7 2.6 0.00 0.00 0.00 34 980.7
20260906000018 99 42 1.7 4.3 0.00 0.00 0.00 34 980.7
20260905235518 100 108 3.5 3.5 0.00 0.00 0.00 33 980.7
20260905235018 100 148 2.6 4.3 0.00 0.00 0.00 33 980.4
20260905234518 100 106 2.6 3.5 0.00 0.00 0.00 32 980.7
20260905234018 100 157 5.2 5.2 0.00 0.00 0.00 32 980.4
20260905233519 101 119 4.3 4.3 0.00 0.00 0.00 31 980.4
20260905233018 101 117 1.7 7.0 0.00 0.00 0.00 32 980.4
20260905232519 102 188 3.5 4.3 0.00 0.00 0.00 31 980.4
20260905232019 102 151 1.7 5.2 0.00 0.00 0.00 32 980.4
20260905231518 102 344 0.0 4.3 0.00 0.00 0.00 31 980.4
20260905231018 102 147 3.5 7.0 0.00 0.00 0.00 31 980.4
20260905230518 102 158 6.1 7.0 0.00 0.00 0.00 31 980.4
20260905230019 102 144 2.6 2.6 0.00 0.00 0.00 31 980.4
20260905225519 102 244 3.5 3.5 0.00 0.00 0.00 30 980.4
20260905225018 102 327 0.9 2.6 0.00 0.00 0.00 30 980.4
20260905224519 102 161 2.6 6.1 0.00 0.00 0.00 30 980.4
20260905224018 102 150 4.3 4.3 0.00 0.00 0.00 30 980.4
20260905223519 103 166 3.5 3.5 0.00 0.00 0.00 31 980.4
20260905223018 103 143 3.5 6.1 0.00 0.00 0.00 31 980.4
20260905222518 103 156 7.0 7.0 0.00 0.00 0.00 30 980.4
20260905222020 103 200 1.7 5.2 0.00 0.00 0.00 30 980.4
20260905221519 103 180 5.2 5.2 0.00 0.00 0.00 30 980.4
20260905221020 102 170 3.5 6.1 0.00 0.00 0.00 31 980.4
20260905220518 100 147 6.1 6.1 0.00 0.00 0.00 32 980.4
20260905220018 101 153 5.2 5.2 0.00 0.00 0.00 32 980.4
20260905215519 102 173 5.2 7.0 0.00 0.00 0.00 31 980.4
20260905215018 102 164 3.5 4.3 0.00 0.00 0.00 30 980.7
20260905214518 103 179 6.1 6.1 0.00 0.00 0.00 29 980.7
20260905214018 102 353 1.7 2.6 0.00 0.00 0.00 30 980.7
20260905213518 102 64 2.6 2.6 0.00 0.00 0.00 30 980.7
20260905213018 102 182 4.3 7.0 0.00 0.00 0.00 29 980.7
20260905212518 100 155 5.2 5.2 0.00 0.00 0.00 32 981.0
20260905212018 100 90 1.7 5.2 0.00 0.00 0.00 32 981.0
20260905211518 100 114 2.6 2.6 0.00 0.00 0.00 33 981.0
20260905211019 103 153 4.3 7.0 0.00 0.00 0.00 31 981.0
20260905210518 103 135 7.0 9.6 0.00 0.00 0.00 30 981.0
20260905210018 104 144 9.6 9.6 0.00 0.00 0.00 30 981.4
20260905205518 104 166 3.5 3.5 0.00 0.00 0.00 30 981.4
20260905205018 101 64 1.7 3.5 0.00 0.00 0.00 32 981.4
20260905204518 100 204 3.5 5.2 0.00 0.00 0.00 31 981.4
20260905204018 101 177 5.2 8.7 0.00 0.00 0.00 31 981.7
20260905203519 102 176 6.1 8.7 0.00 0.00 0.00 31 981.7
20260905203020 102 165 6.1 7.0 0.00 0.00 0.00 30 981.7
20260905202520 102 194 8.7 8.7 0.00 0.00 0.00 30 981.7
20260905202019 102 260 3.5 3.5 0.00 0.00 0.00 30 981.7
20260905201518 102 179 2.6 7.0 0.00 0.00 0.00 31 981.7
20260905201018 103 167 1.7 1.7 0.00 0.00 0.00 31 982.1
20260905200519 102 141 2.6 5.2 0.00 0.00 0.00 32 982.1